Home   Weather   Mazari Sharif   Past weeks

Flag for Afghanistan Past Weather in Mazari Sharif, Afghanistan — Yesterday and Last 2 Weeks

Now
97 °F

Sunny.


Feels Like: 92 °F
Forecast: 67 / 96 °F
Wind: No wind

Location: Termez Airport

Current Time: Sep 26, 2016 at 3:08:04 PM

Latest Report: Sep 26, 2016 at 2:30 PM


Visibility: 10 mi

Pressure: 29.80 "Hg

Humidity: 12%

Dew Point: 36 °F

Location of Mazari SharifLocation

Past Weather in Mazari Sharif — Graph

°F

Mazari Sharif Temperature Yesterday

Maximum temperature yesterday: 97 °F (at 1:00 PM)
Minimum temperature yesterday: 61 °F (at 4:30 AM)
Average temperature yesterday: 79 °F

High & Low Weather Summary for the Past Weeks

 TemperatureHumidityPressure
High102 °F (Sep 22, 3:30 PM)100% (Sep 15, 10:00 AM)30.09 "Hg (Sep 15, 10:00 AM)
Low55 °F (Sep 14, 5:30 AM)9% (Sep 12, 11:30 AM)29.68 "Hg (Sep 24, 3:30 PM)
Average79 °F34%29.82 "Hg
* Reported Sep 11 1:30 PM — Sep 26 1:30 PM, Mazari Sharif, Weather by CustomWeather, © 2016

Note: Actual official high and low records may vary slightly from our data, if they occured in-between our weather recording intervals... More about our weather records

Advertising

Mazari Sharif Weather History for the Previous 24 Hours

Scroll right to see more
 ConditionsComfort  
Time TempWeatherWind HumidityBarometerVisibility
1:30 PM
Mon, Sep 26
93 °FPassing clouds.6 mph13%29.80 "HgN/A
1:00 PM93 °FPassing clouds.6 mph14%29.83 "HgN/A
12:30 PM91 °FPassing clouds.7 mph14%29.83 "HgN/A
12:00 PM91 °FSunny.7 mph16%29.86 "Hg10 mi
11:30 AM90 °FPassing clouds.8 mph15%29.86 "HgN/A
11:00 AM88 °FSunny.9 mph19%29.86 "Hg10 mi
10:30 AM86 °FSunny.9 mph19%29.89 "Hg10 mi
10:00 AM82 °FPassing clouds.6 mph32%29.89 "HgN/A
9:30 AM79 °FPassing clouds.7 mph34%29.89 "HgN/A
9:00 AM79 °FPassing clouds.6 mph32%29.89 "HgN/A
8:30 AM77 °FSunny.No wind34%29.86 "Hg10 mi
8:00 AM73 °FSunny.5 mph38%29.86 "Hg10 mi
7:30 AM70 °FSunny.3 mph43%29.86 "Hg10 mi
7:00 AM66 °FPassing clouds.3 mph49%29.83 "HgN/A
6:30 AM66 °FSunny.5 mph46%29.83 "Hg10 mi
6:00 AM64 °FPassing clouds.5 mph49%29.83 "HgN/A
5:30 AM64 °FClear.6 mph52%29.83 "Hg10 mi
5:00 AM64 °FPassing clouds.6 mph52%29.83 "HgN/A
4:30 AM66 °FClear.6 mph52%29.80 "Hg10 mi
4:00 AM66 °FClear.9 mph56%29.80 "Hg10 mi
3:30 AM66 °FClear.7 mph52%29.80 "Hg10 mi
3:00 AM66 °FClear.9 mph52%29.80 "Hg10 mi
2:30 AM66 °FClear.7 mph56%29.80 "Hg10 mi
1:30 AM68 °FPassing clouds.5 mph49%29.80 "HgN/A
1:00 AM70 °FClear.7 mph38%29.80 "Hg10 mi
12:30 AM70 °FClear.6 mph46%29.80 "Hg10 mi
11:30 PM
Sun, Sep 25
70 °FClear.3 mph43%29.80 "Hg10 mi
11:00 PM70 °FClear.7 mph46%29.80 "Hg10 mi
10:30 PM73 °FClear.6 mph38%29.80 "Hg10 mi
10:00 PM73 °FClear.6 mph36%29.80 "Hg10 mi
9:30 PM77 °FClear.3 mph28%29.80 "Hg10 mi
9:00 PM77 °FClear.5 mph30%29.80 "Hg10 mi
8:30 PM77 °FClear.1 mph39%29.80 "Hg10 mi
8:00 PM79 °FClear.3 mph39%29.80 "Hg6 mi
7:30 PM79 °FClear.2 mph45%29.77 "Hg4 mi
7:00 PM82 °FClear.3 mph40%29.77 "Hg4 mi
6:30 PM82 °FClear.3 mph42%29.77 "Hg5 mi
6:00 PM88 °FClear.No wind25%29.77 "Hg10 mi
5:30 PM90 °FSunny.No wind29%29.74 "Hg10 mi
5:00 PM97 °FSunny.No wind28%29.74 "Hg10 mi
4:30 PM95 °FSunny.2 mph14%29.74 "Hg10 mi
4:00 PM97 °FSunny.2 mph12%29.74 "Hg10 mi
3:30 PM97 °FPassing clouds.3 mph10%29.74 "HgN/A
3:00 PM97 °FPassing clouds.3 mph13%29.77 "HgN/A
Weather by CustomWeather, © 2016

See weather overviewHow to use our weather pages